Time,TemperatureF,DewpointF,PressureIn,WindDirection,WindDirectionDegrees,WindSpeedMPH,WindSpeedGustMPH,Humidity,HourlyPrecipIn,Conditions,Clouds,dailyrainin,SoftwareType,DateUTC
2013-10-14 00:01:00,53.2,47.8,30.27,SSW,202,5.8,-999.0,82,-99.99,,,0.00,Acu-Link.com,2013-10-14 04:01:00,
2013-10-14 00:16:00,52.9,47.6,30.26,SSW,202,4.2,-999.0,82,-99.99,,,0.00,Acu-Link.com,2013-10-14 04:16:00,
2013-10-14 00:31:00,52.5,47.2,30.26,SW,225,4.2,-999.0,82,-99.99,,,0.00,Acu-Link.com,2013-10-14 04:31:00,
2013-10-14 00:47:00,52.0,47.0,30.27,South,180,4.2,-999.0,83,-99.99,,,0.00,Acu-Link.com,2013-10-14 04:47:00,
2013-10-14 01:02:00,51.6,46.9,30.27,WSW,247,3.2,-999.0,84,-99.99,,,0.00,Acu-Link.com,2013-10-14 05:02:00,
2013-10-14 01:17:00,51.6,46.9,30.27,WSW,247,2.7,-999.0,84,-99.99,,,0.00,Acu-Link.com,2013-10-14 05:17:00,
2013-10-14 01:33:00,52.0,47.3,30.28,SW,225,3.7,-999.0,84,-99.99,,,0.00,Acu-Link.com,2013-10-14 05:33:00,
2013-10-14 01:49:00,52.2,47.2,30.27,SSW,202,4.2,-999.0,83,-99.99,,,0.00,Acu-Link.com,2013-10-14 05:49:00,
2013-10-14 02:04:00,52.2,47.2,30.27,SW,225,3.2,-999.0,83,-99.99,,,0.00,Acu-Link.com,2013-10-14 06:04:00,
2013-10-14 02:20:00,52.2,47.2,30.27,NW,315,5.8,-999.0,83,-99.99,,,0.00,Acu-Link.com,2013-10-14 06:20:00,
2013-10-14 02:36:00,52.2,47.2,30.27,East,90,3.7,-999.0,83,-99.99,,,0.00,Acu-Link.com,2013-10-14 06:36:00,
2013-10-14 02:51:00,52.2,47.2,30.27,WSW,247,3.7,-999.0,83,-99.99,,,0.00,Acu-Link.com,2013-10-14 06:51:00,
2013-10-14 03:13:00,52.2,46.9,30.27,WNW,292,6.3,-999.0,82,-99.99,,,0.00,Acu-Link.com,2013-10-14 07:13:00,
2013-10-14 03:28:00,52.3,47.0,30.27,SE,135,5.3,-999.0,82,-99.99,,,0.00,Acu-Link.com,2013-10-14 07:28:00,
2013-10-14 03:44:00,52.3,47.0,30.27,West,270,3.2,-999.0,82,-99.99,,,0.00,Acu-Link.com,2013-10-14 07:44:00,
2013-10-14 03:59:00,52.5,47.2,30.26,SSW,202,5.3,-999.0,82,-99.99,,,0.00,Acu-Link.com,2013-10-14 07:59:00,
2013-10-14 04:16:00,52.3,47.3,30.27,South,180,3.7,-999.0,83,-99.99,,,0.00,Acu-Link.com,2013-10-14 08:16:00,
2013-10-14 04:31:00,52.2,47.2,30.26,South,180,5.3,-999.0,83,-99.99,,,0.00,Acu-Link.com,2013-10-14 08:31:00,
2013-10-14 04:46:00,52.2,47.2,30.25,SW,225,5.3,-999.0,83,-99.99,,,0.00,Acu-Link.com,2013-10-14 08:46:00,
2013-10-14 05:02:00,52.2,47.2,30.26,SE,135,3.7,-999.0,83,-99.99,,,0.00,Acu-Link.com,2013-10-14 09:02:00,
2013-10-14 05:17:00,52.0,47.0,30.26,SSW,202,2.2,-999.0,83,-99.99,,,0.00,Acu-Link.com,2013-10-14 09:17:00,
2013-10-14 05:32:00,52.0,47.0,30.25,SW,225,4.2,-999.0,83,-99.99,,,0.00,Acu-Link.com,2013-10-14 09:32:00,
2013-10-14 05:47:00,50.5,46.2,30.26,SW,225,4.7,-999.0,85,-99.99,,,0.00,Acu-Link.com,2013-10-14 09:47:00,
2013-10-14 06:03:00,50.4,46.4,30.26,SSW,202,4.7,-999.0,86,-99.99,,,0.00,Acu-Link.com,2013-10-14 10:03:00,
2013-10-14 06:18:00,50.2,46.2,30.26,SSE,157,4.2,-999.0,86,-99.99,,,0.00,Acu-Link.com,2013-10-14 10:18:00,
2013-10-14 06:33:00,50.0,46.3,30.26,South,180,5.3,-999.0,87,-99.99,,,0.00,Acu-Link.com,2013-10-14 10:33:00,
2013-10-14 06:48:00,50.0,46.3,30.26,SSW,202,3.2,-999.0,87,-99.99,,,0.00,Acu-Link.com,2013-10-14 10:48:00,
2013-10-14 07:03:00,50.0,46.3,30.26,ESE,112,3.2,-999.0,87,-99.99,,,0.00,Acu-Link.com,2013-10-14 11:03:00,
2013-10-14 07:19:00,50.4,46.4,30.27,SW,225,3.2,-999.0,86,-99.99,,,0.00,Acu-Link.com,2013-10-14 11:19:00,
2013-10-14 07:34:00,50.5,46.5,30.26,WNW,292,4.2,-999.0,86,-99.99,,,0.00,Acu-Link.com,2013-10-14 11:34:00,
2013-10-14 07:49:00,50.9,46.2,30.26,SE,135,5.8,-999.0,84,-99.99,,,0.00,Acu-Link.com,2013-10-14 11:49:00,
2013-10-14 08:05:00,51.4,46.4,30.27,SSE,157,4.2,-999.0,83,-99.99,,,0.00,Acu-Link.com,2013-10-14 12:05:00,
2013-10-14 08:20:00,51.3,46.3,30.28,SW,225,5.3,-999.0,83,-99.99,,,0.00,Acu-Link.com,2013-10-14 12:20:00,
2013-10-14 08:35:00,51.4,46.4,30.28,SSW,202,3.2,-999.0,83,-99.99,,,0.00,Acu-Link.com,2013-10-14 12:35:00,
2013-10-14 08:50:00,52.3,47.0,30.27,SSW,202,6.3,-999.0,82,-99.99,,,0.00,Acu-Link.com,2013-10-14 12:50:00,
2013-10-14 09:05:00,52.7,46.7,30.27,SW,225,5.8,-999.0,80,-99.99,,,0.00,Acu-Link.com,2013-10-14 13:05:00,
2013-10-14 09:21:00,53.2,47.2,30.27,SW,225,4.2,-999.0,80,-99.99,,,0.00,Acu-Link.com,2013-10-14 13:21:00,
2013-10-14 09:36:00,54.0,47.6,30.27,SSE,157,6.3,-999.0,79,-99.99,,,0.00,Acu-Link.com,2013-10-14 13:36:00,
2013-10-14 09:51:00,53.4,47.1,30.27,South,180,7.8,-999.0,79,-99.99,,,0.00,Acu-Link.com,2013-10-14 13:51:00,
2013-10-14 10:06:00,55.2,48.1,30.27,SSE,157,5.3,-999.0,77,-99.99,,,0.00,Acu-Link.com,2013-10-14 14:06:00,
2013-10-14 10:21:00,55.2,48.5,30.26,SW,225,4.2,-999.0,78,-99.99,,,0.00,Acu-Link.com,2013-10-14 14:21:00,
2013-10-14 10:37:00,56.1,48.6,30.26,SSE,157,5.3,-999.0,76,-99.99,,,0.00,Acu-Link.com,2013-10-14 14:37:00,
2013-10-14 10:52:00,56.5,48.7,30.25,SSW,202,4.2,-999.0,75,-99.99,,,0.00,Acu-Link.com,2013-10-14 14:52:00,
2013-10-14 11:07:00,56.8,49.0,30.25,SSW,202,4.7,-999.0,75,-99.99,,,0.00,Acu-Link.com,2013-10-14 15:07:00,
2013-10-14 11:22:00,57.7,49.5,30.25,South,180,3.2,-999.0,74,-99.99,,,0.00,Acu-Link.com,2013-10-14 15:22:00,
2013-10-14 11:38:00,58.3,49.7,30.25,South,180,5.8,-999.0,73,-99.99,,,0.00,Acu-Link.com,2013-10-14 15:38:00,
2013-10-14 11:53:00,58.8,50.2,30.24,SSE,157,2.2,-999.0,73,-99.99,,,0.00,Acu-Link.com,2013-10-14 15:53:00,
2013-10-14 12:08:00,59.9,50.5,30.23,SSW,202,3.2,-999.0,71,-99.99,,,0.00,Acu-Link.com,2013-10-14 16:08:00,
2013-10-14 12:23:00,59.9,50.5,30.22,SSE,157,3.2,-999.0,71,-99.99,,,0.00,Acu-Link.com,2013-10-14 16:23:00,
2013-10-14 12:39:00,60.6,50.8,30.22,SSW,202,4.2,-999.0,70,-99.99,,,0.00,Acu-Link.com,2013-10-14 16:39:00,
2013-10-14 12:54:00,60.4,50.6,30.22,West,270,4.2,-999.0,70,-99.99,,,0.00,Acu-Link.com,2013-10-14 16:54:00,
2013-10-14 13:09:00,60.6,51.9,30.20,SW,225,3.7,-999.0,73,-99.99,,,0.00,Acu-Link.com,2013-10-14 17:09:00,
2013-10-14 13:24:00,60.8,51.7,30.19,West,270,0.0,-999.0,72,-99.99,,,0.00,Acu-Link.com,2013-10-14 17:24:00,
2013-10-14 13:40:00,62.2,52.3,30.19,ENE,67,1.1,-999.0,70,-99.99,,,0.00,Acu-Link.com,2013-10-14 17:40:00,
2013-10-14 13:55:00,63.0,52.7,30.17,NNE,22,4.2,-999.0,69,-99.99,,,0.00,Acu-Link.com,2013-10-14 17:55:00,
2013-10-14 14:10:00,64.6,53.0,30.17,SE,135,2.7,-999.0,66,-99.99,,,0.00,Acu-Link.com,2013-10-14 18:10:00,
2013-10-14 14:25:00,64.8,53.2,30.16,North,0,1.1,-999.0,66,-99.99,,,0.00,Acu-Link.com,2013-10-14 18:25:00,
2013-10-14 14:41:00,66.6,54.0,30.15,ESE,112,3.7,-999.0,64,-99.99,,,0.00,Acu-Link.com,2013-10-14 18:41:00,
2013-10-14 14:56:00,66.6,53.6,30.15,SSE,157,4.2,-999.0,63,-99.99,,,0.00,Acu-Link.com,2013-10-14 18:56:00,
2013-10-14 15:11:00,64.9,52.8,30.15,SSE,157,5.3,-999.0,65,-99.99,,,0.00,Acu-Link.com,2013-10-14 19:11:00,
2013-10-14 15:26:00,64.4,52.8,30.14,WSW,247,3.7,-999.0,66,-99.99,,,0.00,Acu-Link.com,2013-10-14 19:26:00,
2013-10-14 15:42:00,65.1,53.5,30.14,WSW,247,3.7,-999.0,66,-99.99,,,0.00,Acu-Link.com,2013-10-14 19:42:00,
2013-10-14 15:57:00,66.4,53.8,30.14,ESE,112,5.8,-999.0,64,-99.99,,,0.00,Acu-Link.com,2013-10-14 19:57:00,
2013-10-14 16:12:00,65.5,53.4,30.14,ESE,112,5.8,-999.0,65,-99.99,,,0.00,Acu-Link.com,2013-10-14 20:12:00,
2013-10-14 16:27:00,64.6,53.0,30.14,ESE,112,4.7,-999.0,66,-99.99,,,0.00,Acu-Link.com,2013-10-14 20:27:00,
2013-10-14 16:42:00,64.6,53.4,30.14,ENE,67,2.2,-999.0,67,-99.99,,,0.00,Acu-Link.com,2013-10-14 20:42:00,
2013-10-14 16:58:00,65.1,53.9,30.13,East,90,2.7,-999.0,67,-99.99,,,0.00,Acu-Link.com,2013-10-14 20:58:00,
2013-10-14 17:13:00,64.9,53.7,30.14,SE,135,3.7,-999.0,67,-99.99,,,0.00,Acu-Link.com,2013-10-14 21:13:00,
2013-10-14 17:28:00,64.4,53.2,30.14,East,90,1.7,-999.0,67,-99.99,,,0.00,Acu-Link.com,2013-10-14 21:28:00,
2013-10-14 17:43:00,64.0,53.2,30.14,NE,45,1.7,-999.0,68,-99.99,,,0.00,Acu-Link.com,2013-10-14 21:43:00,
2013-10-14 17:58:00,63.9,53.1,30.14,NNW,337,0.0,-999.0,68,-99.99,,,0.00,Acu-Link.com,2013-10-14 21:58:00,
2013-10-14 18:14:00,63.3,53.3,30.15,SSE,157,0.0,-999.0,70,-99.99,,,0.00,Acu-Link.com,2013-10-14 22:14:00,
2013-10-14 18:29:00,63.1,53.2,30.16,NW,315,1.7,-999.0,70,-99.99,,,0.00,Acu-Link.com,2013-10-14 22:29:00,
2013-10-14 18:44:00,62.8,53.3,30.15,NNE,22,2.2,-999.0,71,-99.99,,,0.00,Acu-Link.com,2013-10-14 22:44:00,
2013-10-14 18:59:00,62.6,53.4,30.16,North,0,2.2,-999.0,72,-99.99,,,0.00,Acu-Link.com,2013-10-14 22:59:00,
2013-10-14 19:14:00,61.9,53.1,30.16,WNW,292,1.7,-999.0,73,-99.99,,,0.00,Acu-Link.com,2013-10-14 23:14:00,
2013-10-14 19:30:00,61.7,53.0,30.17,ENE,67,4.7,-999.0,73,-99.99,,,0.00,Acu-Link.com,2013-10-14 23:30:00,
2013-10-14 19:45:00,61.2,52.8,30.16,NNW,337,1.1,-999.0,74,-99.99,,,0.00,Acu-Link.com,2013-10-14 23:45:00,
2013-10-14 20:00:00,61.0,52.7,30.15,NNE,22,2.7,-999.0,74,-99.99,,,0.00,Acu-Link.com,2013-10-15 00:00:00,
2013-10-14 20:15:00,60.4,53.2,30.16,NNE,22,4.2,-999.0,77,-99.99,,,0.00,Acu-Link.com,2013-10-15 00:15:00,
2013-10-14 20:30:00,60.1,53.2,30.17,NW,315,4.7,-999.0,78,-99.99,,,0.00,Acu-Link.com,2013-10-15 00:30:00,
2013-10-14 20:46:00,59.9,53.0,30.17,NNE,22,4.7,-999.0,78,-99.99,,,0.00,Acu-Link.com,2013-10-15 00:46:00,
2013-10-14 21:01:00,59.7,53.2,30.16,NNW,337,2.7,-999.0,79,-99.99,,,0.00,Acu-Link.com,2013-10-15 01:01:00,
2013-10-14 21:16:00,59.4,53.6,30.17,North,0,4.2,-999.0,81,-99.99,,,0.00,Acu-Link.com,2013-10-15 01:16:00,
2013-10-14 21:31:00,59.4,53.9,30.17,NNE,22,5.3,-999.0,82,-99.99,,,0.00,Acu-Link.com,2013-10-15 01:31:00,
2013-10-14 21:47:00,59.4,53.9,30.18,WNW,292,3.7,-999.0,82,-99.99,,,0.00,Acu-Link.com,2013-10-15 01:47:00,
2013-10-14 22:02:00,59.4,53.9,30.17,North,0,2.7,-999.0,82,-99.99,,,0.00,Acu-Link.com,2013-10-15 02:02:00,
2013-10-14 22:17:00,59.5,53.7,30.18,NW,315,2.7,-999.0,81,-99.99,,,0.00,Acu-Link.com,2013-10-15 02:17:00,
2013-10-14 22:32:00,59.7,53.5,30.17,NNE,22,1.7,-999.0,80,-99.99,,,0.00,Acu-Link.com,2013-10-15 02:32:00,
2013-10-14 22:47:00,59.9,53.7,30.16,SE,135,0.0,-999.0,80,-99.99,,,0.00,Acu-Link.com,2013-10-15 02:47:00,
2013-10-14 23:03:00,59.9,53.7,30.16,East,90,0.0,-999.0,80,-99.99,,,0.00,Acu-Link.com,2013-10-15 03:03:00,
2013-10-14 23:18:00,59.9,53.7,30.17,NW,315,0.0,-999.0,80,-99.99,,,0.00,Acu-Link.com,2013-10-15 03:18:00,
2013-10-14 23:33:00,60.1,53.9,30.16,North,0,2.2,-999.0,80,-99.99,,,0.00,Acu-Link.com,2013-10-15 03:33:00,
2013-10-14 23:48:00,59.7,53.9,30.16,ENE,67,2.2,-999.0,81,-99.99,,,0.00,Acu-Link.com,2013-10-15 03:48:00,